GTW3 KCHA-KLUK

Flight info

Callsign GTW3
Flight time 0h 40m
Altitude 33000
Route DCT FLM DCT
Aircraft C750/M-VGDW/C

Departure

Time 2026-04-30 02:41
Airport Chattanooga Metropolitan Airport (Lovell Field) (KCHA)

Arrival

Time 2026-04-30 03:21
Airport Cincinnati Municipal Airport Lunken Field (KLUK)
Time Latitude Longitude Altitude Speed Heading
2026-04-30 02:26 35.02998 -85.20236 677 ft 0 kts 197°
2026-04-30 02:37 35.02996 -85.20236 677 ft 1 kts 197°
2026-04-30 02:37 35.02970 -85.20259 677 ft 5 kts 252°
2026-04-30 02:38 35.02948 -85.20290 677 ft 5 kts 203°
2026-04-30 02:38 35.02886 -85.20312 677 ft 12 kts 199°
2026-04-30 02:38 35.02843 -85.20394 677 ft 10 kts 210°
2026-04-30 02:38 35.02771 -85.20425 677 ft 11 kts 196°
2026-04-30 02:39 35.02695 -85.20452 677 ft 11 kts 196°
2026-04-30 02:39 35.02615 -85.20482 676 ft 13 kts 197°
2026-04-30 02:39 35.02514 -85.20520 675 ft 17 kts 198°
2026-04-30 02:39 35.02380 -85.20570 674 ft 22 kts 196°
2026-04-30 02:40 35.02261 -85.20631 673 ft 11 kts 239°
2026-04-30 02:40 35.02273 -85.20721 673 ft 11 kts 307°
2026-04-30 02:40 35.02342 -85.20723 673 ft 10 kts 15°
2026-04-30 02:40 35.02681 -85.20600 677 ft 104 kts 17°
2026-04-30 02:41 35.03655 -85.20227 860 ft 175 kts 17°
2026-04-30 02:41 35.04922 -85.19742 1713 ft 212 kts 17°
2026-04-30 02:41 35.06289 -85.19198 3200 ft 210 kts 18°
2026-04-30 02:41 35.07682 -85.18648 4302 ft 225 kts 17°
2026-04-30 02:42 35.09262 -85.17982 4937 ft 262 kts 18°
2026-04-30 02:42 35.11038 -85.17174 5850 ft 281 kts 17°
2026-04-30 02:42 35.12967 -85.16419 6521 ft 309 kts
2026-04-30 02:42 35.15242 -85.15967 6595 ft 346 kts
2026-04-30 02:43 35.17542 -85.15407 6692 ft 328 kts
2026-04-30 02:43 35.19655 -85.14992 7632 ft 289 kts
2026-04-30 02:43 35.21745 -85.14462 7627 ft 328 kts
2026-04-30 02:43 35.24095 -85.13910 8423 ft 348 kts
2026-04-30 02:44 35.26432 -85.13351 9769 ft 348 kts
2026-04-30 02:44 35.28759 -85.12804 11313 ft 340 kts
2026-04-30 02:44 35.31019 -85.12279 12753 ft 333 kts
2026-04-30 02:44 35.33306 -85.11746 13926 ft 334 kts
2026-04-30 02:45 35.35586 -85.11220 14885 ft 340 kts
2026-04-30 02:45 35.37930 -85.10673 15858 ft 345 kts
2026-04-30 02:45 35.40310 -85.10121 16723 ft 351 kts
2026-04-30 02:45 35.42724 -85.09557 17609 ft 356 kts
2026-04-30 02:46 35.45163 -85.08986 18448 ft 361 kts
2026-04-30 02:46 35.47630 -85.08403 19241 ft 365 kts
2026-04-30 02:46 35.50126 -85.07820 20133 ft 370 kts
2026-04-30 02:46 35.52676 -85.07223 20993 ft 376 kts
2026-04-30 02:47 35.55264 -85.06614 21908 ft 379 kts 360°
2026-04-30 02:47 35.57854 -85.06005 22694 ft 384 kts 359°
2026-04-30 02:47 35.60500 -85.05389 23509 ft 388 kts 358°
2026-04-30 02:47 35.63215 -85.04761 24199 ft 397 kts 358°
2026-04-30 02:48 35.65940 -85.04123 24906 ft 399 kts 358°
2026-04-30 02:48 35.68648 -85.03478 25859 ft 393 kts 358°
2026-04-30 02:48 35.71309 -85.02842 26787 ft 389 kts 356°
2026-04-30 02:48 35.73953 -85.02229 27532 ft 392 kts 356°
2026-04-30 02:49 35.76671 -85.01603 28061 ft 401 kts 356°
2026-04-30 02:49 35.79429 -85.00952 28746 ft 405 kts 356°
2026-04-30 02:49 35.82201 -85.00294 29410 ft 409 kts 355°
2026-04-30 02:49 35.85045 -84.99627 29965 ft 416 kts 355°
2026-04-30 02:50 35.87962 -84.98955 30021 ft 436 kts 356°
2026-04-30 02:50 35.91032 -84.98239 30042 ft 456 kts 357°
2026-04-30 02:50 35.94195 -84.97491 30052 ft 476 kts 358°
2026-04-30 02:50 35.97554 -84.96693 30036 ft 494 kts 358°
2026-04-30 02:51 36.01015 -84.95873 30038 ft 512 kts 358°
2026-04-30 02:51 36.04534 -84.95035 30222 ft 523 kts 359°
2026-04-30 02:51 36.07870 -84.94180 32723 ft 481 kts 358°
2026-04-30 02:51 36.11233 -84.93411 32946 ft 486 kts 357°
2026-04-30 02:52 36.14745 -84.92597 32994 ft 498 kts 357°
2026-04-30 02:52 36.18177 -84.91794 33019 ft 511 kts 358°
2026-04-30 02:52 36.21710 -84.90951 33015 ft 525 kts 358°
2026-04-30 02:52 36.25422 -84.90068 33024 ft 538 kts 358°
2026-04-30 02:53 36.29125 -84.89162 33000 ft 550 kts
2026-04-30 02:53 36.36660 -84.87472 33013 ft 546 kts
2026-04-30 02:53 36.40335 -84.85766 33099 ft 564 kts 12°
2026-04-30 02:54 36.44002 -84.84096 33006 ft 551 kts
2026-04-30 02:54 36.51356 -84.81685 33024 ft 546 kts
2026-04-30 02:55 36.58752 -84.79209 33029 ft 547 kts
2026-04-30 02:55 36.66150 -84.76703 33029 ft 549 kts
2026-04-30 02:56 36.73518 -84.74208 33031 ft 550 kts
2026-04-30 02:56 36.80940 -84.71687 33020 ft 551 kts
2026-04-30 02:57 36.88379 -84.69154 33034 ft 549 kts
2026-04-30 02:57 36.95792 -84.66628 33033 ft 549 kts
2026-04-30 02:58 37.03240 -84.64089 33038 ft 551 kts
2026-04-30 02:58 37.10678 -84.61539 33030 ft 550 kts
2026-04-30 02:59 37.18212 -84.58963 33033 ft 549 kts
2026-04-30 02:59 37.25618 -84.56419 33021 ft 550 kts
2026-04-30 03:00 37.33015 -84.53867 33036 ft 544 kts
2026-04-30 03:00 37.40270 -84.51366 33024 ft 534 kts
2026-04-30 03:01 37.47416 -84.48895 33027 ft 527 kts
2026-04-30 03:01 37.54471 -84.46452 33045 ft 521 kts
2026-04-30 03:01 37.57891 -84.45249 32963 ft 494 kts
2026-04-30 03:02 37.61108 -84.44129 32823 ft 468 kts
2026-04-30 03:02 37.64197 -84.43053 32389 ft 453 kts
2026-04-30 03:02 37.67196 -84.42023 31699 ft 446 kts
2026-04-30 03:02 37.70184 -84.40995 30861 ft 443 kts
2026-04-30 03:03 37.73162 -84.39960 29989 ft 441 kts
2026-04-30 03:03 37.78999 -84.37925 28389 ft 429 kts
2026-04-30 03:03 37.81881 -84.36916 27673 ft 422 kts
2026-04-30 03:04 37.84691 -84.35934 26923 ft 416 kts
2026-04-30 03:04 37.87452 -84.34969 26275 ft 408 kts
2026-04-30 03:04 37.90219 -84.33997 25640 ft 399 kts
2026-04-30 03:04 37.92876 -84.33067 25038 ft 391 kts
2026-04-30 03:05 37.95468 -84.32159 24411 ft 384 kts
2026-04-30 03:05 37.98006 -84.31269 23780 ft 379 kts
2026-04-30 03:05 38.00549 -84.30377 23149 ft 373 kts
2026-04-30 03:05 38.03024 -84.29504 22543 ft 367 kts
2026-04-30 03:06 38.05495 -84.28635 21960 ft 362 kts
2026-04-30 03:06 38.07881 -84.27796 21405 ft 356 kts
2026-04-30 03:06 38.10258 -84.26963 20857 ft 351 kts
2026-04-30 03:06 38.12667 -84.26116 20299 ft 355 kts
2026-04-30 03:07 38.15237 -84.25244 19750 ft 389 kts
2026-04-30 03:07 38.17924 -84.24290 19585 ft 399 kts
2026-04-30 03:07 38.20602 -84.23333 19597 ft 400 kts
2026-04-30 03:07 38.23293 -84.22375 19595 ft 402 kts
2026-04-30 03:08 38.26030 -84.21404 19307 ft 411 kts
2026-04-30 03:08 38.28863 -84.20419 18444 ft 433 kts
2026-04-30 03:08 38.31819 -84.19373 17523 ft 451 kts
2026-04-30 03:08 38.34825 -84.18298 16546 ft 438 kts
2026-04-30 03:09 38.37669 -84.17444 15534 ft 413 kts
2026-04-30 03:09 38.40456 -84.17143 14524 ft 389 kts 352°
2026-04-30 03:09 38.43095 -84.17389 13508 ft 368 kts 343°
2026-04-30 03:09 38.45567 -84.17935 12510 ft 355 kts 341°
2026-04-30 03:10 38.47879 -84.18793 11495 ft 339 kts 332°
2026-04-30 03:10 38.49895 -84.20084 11052 ft 310 kts 324°
2026-04-30 03:10 38.51745 -84.21395 11002 ft 297 kts 324°
2026-04-30 03:10 38.53538 -84.22661 10994 ft 288 kts 324°
2026-04-30 03:11 38.55273 -84.23894 10808 ft 286 kts 324°
2026-04-30 03:11 38.56987 -84.25114 10489 ft 276 kts 324°
2026-04-30 03:11 38.58641 -84.26289 10129 ft 261 kts 324°
2026-04-30 03:11 38.60197 -84.27397 9778 ft 255 kts 324°
2026-04-30 03:12 38.61772 -84.28530 9503 ft 263 kts 324°
2026-04-30 03:12 38.63379 -84.29687 9267 ft 267 kts 324°
2026-04-30 03:12 38.64983 -84.30839 9017 ft 265 kts 325°
2026-04-30 03:12 38.66611 -84.32006 8756 ft 264 kts 326°
2026-04-30 03:13 38.68217 -84.33147 8501 ft 262 kts 326°
2026-04-30 03:13 38.69809 -84.34287 8243 ft 262 kts 326°
2026-04-30 03:13 38.71411 -84.35435 7987 ft 261 kts 327°
2026-04-30 03:13 38.72974 -84.36554 7685 ft 256 kts 327°
2026-04-30 03:14 38.74526 -84.37663 7366 ft 253 kts 327°
2026-04-30 03:14 38.76099 -84.38661 7050 ft 252 kts 336°
2026-04-30 03:14 38.77810 -84.39224 6817 ft 249 kts 345°
2026-04-30 03:14 38.79500 -84.39685 6609 ft 248 kts 345°
2026-04-30 03:15 38.81190 -84.40156 6399 ft 247 kts 345°
2026-04-30 03:15 38.82869 -84.40630 6147 ft 246 kts 344°
2026-04-30 03:15 38.84536 -84.41099 5748 ft 245 kts 345°
2026-04-30 03:15 38.86209 -84.41579 5354 ft 242 kts 345°
2026-04-30 03:16 38.87843 -84.42025 4977 ft 240 kts 348°
2026-04-30 03:16 38.89479 -84.42336 4581 ft 235 kts 345°
2026-04-30 03:16 38.91050 -84.42853 4199 ft 230 kts 346°
2026-04-30 03:16 38.92604 -84.43283 3808 ft 223 kts 346°
2026-04-30 03:17 38.94097 -84.43697 3419 ft 217 kts 347°
2026-04-30 03:17 38.95565 -84.44096 3032 ft 212 kts 347°
2026-04-30 03:17 38.97011 -84.44487 2632 ft 209 kts 347°
2026-04-30 03:17 38.98411 -84.44868 2266 ft 204 kts 347°
2026-04-30 03:18 38.99744 -84.45226 2117 ft 187 kts 347°
2026-04-30 03:18 39.00951 -84.45556 2072 ft 163 kts 346°
2026-04-30 03:18 39.01967 -84.45696 2016 ft 132 kts
2026-04-30 03:18 39.02697 -84.45218 2079 ft 112 kts 20°
2026-04-30 03:19 39.03440 -84.44714 1810 ft 124 kts 17°
2026-04-30 03:19 39.04251 -84.44350 1536 ft 120 kts 12°
2026-04-30 03:19 39.05035 -84.44006 1246 ft 114 kts 15°
2026-04-30 03:19 39.05818 -84.43623 1168 ft 124 kts 17°
2026-04-30 03:20 39.06658 -84.43231 1079 ft 127 kts 16°
2026-04-30 03:20 39.07472 -84.42824 884 ft 125 kts 18°
2026-04-30 03:20 39.08288 -84.42427 699 ft 122 kts 19°
2026-04-30 03:20 39.09066 -84.42048 551 ft 119 kts 19°
2026-04-30 03:21 39.09798 -84.41693 480 ft 101 kts 21°
2026-04-30 03:21 39.10292 -84.41442 474 ft 52 kts 15°
2026-04-30 03:21 39.10459 -84.41389 473 ft 17 kts 352°
2026-04-30 03:21 39.10561 -84.41442 472 ft 13 kts 333°
2026-04-30 03:22 39.10645 -84.41499 471 ft 14 kts 332°
2026-04-30 03:22 39.10736 -84.41563 470 ft 12 kts 325°
2026-04-30 03:22 39.10744 -84.41627 470 ft 8 kts 241°
2026-04-30 03:22 39.10665 -84.41806 471 ft 31 kts 242°
2026-04-30 03:23 39.10559 -84.42063 473 ft 32 kts 240°
2026-04-30 03:23 39.10457 -84.42307 476 ft 30 kts 243°
2026-04-30 03:23 39.10361 -84.42539 479 ft 26 kts 242°
2026-04-30 03:23 39.10307 -84.42671 480 ft 10 kts 236°
2026-04-30 03:24 39.10256 -84.42673 481 ft 9 kts 160°
2026-04-30 03:24 39.10166 -84.42625 481 ft 18 kts 153°
2026-04-30 03:24 39.10026 -84.42537 481 ft 25 kts 153°
2026-04-30 03:24 39.09856 -84.42429 482 ft 24 kts 152°
2026-04-30 03:25 39.09718 -84.42339 482 ft 19 kts 154°
2026-04-30 03:25 39.09610 -84.42278 483 ft 10 kts 168°
2026-04-30 03:25 39.09560 -84.42320 483 ft 7 kts 184°
2026-04-30 03:25 39.09541 -84.42333 483 ft 0 kts 330°